Radiation Dose at Monitoring Post of Fukushima Daini Nuclear Power Station
Date,Time,MP-1(microSv/h),MP-2(microSv/h),MP-3(microSv/h),MP-4(microSv/h),MP-5(microSv/h),MP-6(microSv/h),MP-7(microSv/h),Wind Direction,Wind Velocity(m/s),Rain
2016/01/11,00:00,0.471,0.273,0.496,0.452,0.425,0.226,0.199,north,6.1,No
2016/01/11,00:10,0.473,0.272,0.496,0.450,0.423,0.225,0.199,north,3.8,No
2016/01/11,00:20,0.471,0.274,0.494,0.451,0.424,0.225,0.200,north,3.7,No
2016/01/11,00:30,0.470,0.273,0.495,0.451,0.424,0.224,0.200,northwest,3.7,No
2016/01/11,00:40,0.471,0.273,0.496,0.452,0.422,0.225,0.200,north-northwest,2.8,No
2016/01/11,00:50,0.472,0.273,0.497,0.450,0.423,0.225,0.200,north,1.3,No
2016/01/11,01:00,0.470,0.274,0.498,0.450,0.424,0.226,0.201,north-northwest,1.3,No
2016/01/11,01:10,0.471,0.273,0.494,0.451,0.421,0.225,0.198,north-northwest,1.8,No
2016/01/11,01:20,0.470,0.274,0.497,0.451,0.422,0.226,0.199,north,2.0,No
2016/01/11,01:30,0.472,0.273,0.495,0.451,0.424,0.225,0.199,north-northwest,2.8,No
2016/01/11,01:40,0.470,0.273,0.496,0.449,0.425,0.224,0.199,north,2.8,No
2016/01/11,01:50,0.471,0.274,0.494,0.449,0.424,0.226,0.199,north,2.6,No
2016/01/11,02:00,0.471,0.273,0.496,0.450,0.422,0.225,0.198,north,2.0,No
2016/01/11,02:10,0.471,0.273,0.497,0.450,0.423,0.226,0.198,north,2.2,No
2016/01/11,02:20,0.471,0.272,0.495,0.450,0.425,0.226,0.200,north-northwest,1.7,No
2016/01/11,02:30,0.471,0.273,0.496,0.451,0.423,0.225,0.199,north-northwest,1.4,No
2016/01/11,02:40,0.471,0.273,0.497,0.451,0.422,0.223,0.199,northwest,1.0,No
2016/01/11,02:50,0.471,0.272,0.495,0.450,0.424,0.225,0.199,west-northwest,1.3,No
2016/01/11,03:00,0.471,0.273,0.495,0.448,0.426,0.226,0.199,north-northwest,2.1,No
2016/01/11,03:10,0.471,0.271,0.497,0.449,0.423,0.224,0.199,north-northwest,2.8,No
2016/01/11,03:20,0.472,0.273,0.498,0.450,0.424,0.226,0.198,north-northwest,2.6,No
2016/01/11,03:30,0.471,0.273,0.495,0.451,0.424,0.226,0.199,north-northwest,3.6,No
2016/01/11,03:40,0.471,0.273,0.497,0.451,0.425,0.225,0.199,north-northwest,3.8,Yes
2016/01/11,03:50,0.471,0.274,0.497,0.450,0.424,0.225,0.198,north-northwest,4.3,No
2016/01/11,04:00,0.474,0.273,0.497,0.450,0.423,0.226,0.198,northwest,4.4,No
2016/01/11,04:10,0.472,0.273,0.495,0.449,0.424,0.224,0.199,north-northwest,4.2,No
2016/01/11,04:20,0.470,0.272,0.495,0.449,0.426,0.225,0.198,north-northwest,5.3,No
2016/01/11,04:30,0.472,0.272,0.498,0.451,0.424,0.227,0.199,north-northwest,7.6,No
2016/01/11,04:40,0.470,0.272,0.494,0.451,0.422,0.227,0.198,north,7.7,No
2016/01/11,04:50,0.471,0.272,0.495,0.449,0.425,0.225,0.199,north,8.1,No
2016/01/11,05:00,0.471,0.273,0.495,0.449,0.425,0.225,0.199,north-northwest,7.7,No
2016/01/11,05:10,0.474,0.272,0.496,0.451,0.423,0.225,0.199,north-northwest,8.2,No
2016/01/11,05:20,0.471,0.273,0.496,0.451,0.423,0.227,0.198,north,7.0,No
2016/01/11,05:30,0.472,0.273,0.495,0.449,0.424,0.225,0.199,north,7.0,No
2016/01/11,05:40,0.470,0.273,0.496,0.448,0.424,0.224,0.199,north,6.5,No
2016/01/11,05:50,0.471,0.273,0.496,0.450,0.424,0.225,0.198,north-northwest,6.4,No
2016/01/11,06:00,0.471,0.274,0.494,0.450,0.423,0.226,0.197,north-northwest,6.1,No
2016/01/11,06:10,0.472,0.273,0.495,0.451,0.424,0.225,0.199,north,7.0,No
2016/01/11,06:20,0.472,0.273,0.497,0.450,0.424,0.225,0.198,north,7.0,No
2016/01/11,06:30,0.472,0.274,0.496,0.450,0.425,0.225,0.198,north,6.1,No
2016/01/11,06:40,0.472,0.273,0.495,0.449,0.423,0.224,0.198,north,5.9,No
2016/01/11,06:50,0.471,0.274,0.497,0.448,0.423,0.225,0.199,north,6.6,No
2016/01/11,07:00,0.472,0.274,0.497,0.450,0.424,0.225,0.199,north,7.4,No
2016/01/11,07:10,0.470,0.273,0.497,0.450,0.426,0.224,0.199,north,8.1,No
2016/01/11,07:20,0.470,0.271,0.493,0.451,0.424,0.226,0.197,north,7.3,No
2016/01/11,07:30,0.471,0.272,0.495,0.450,0.422,0.225,0.198,north,8.1,No
2016/01/11,07:40,0.473,0.273,0.495,0.450,0.421,0.225,0.196,north,7.1,No
2016/01/11,07:50,0.473,0.273,0.494,0.450,0.425,0.224,0.197,north,6.5,No
2016/01/11,08:00,0.472,0.272,0.493,0.449,0.424,0.226,0.199,north,6.4,No
2016/01/11,08:10,0.470,0.272,0.495,0.448,0.423,0.225,0.199,north,5.1,No
2016/01/11,08:20,0.471,0.272,0.495,0.449,0.423,0.225,0.198,north,5.6,No
2016/01/11,08:30,0.470,0.273,0.495,0.449,0.424,0.224,0.198,north-northeast,6.4,No
2016/01/11,08:40,0.470,0.273,0.494,0.449,0.424,0.224,0.198,north,7.0,No
2016/01/11,08:50,0.469,0.272,0.495,0.449,0.425,0.225,0.199,north,5.9,No
2016/01/11,09:00,0.471,0.273,0.497,0.450,0.421,0.224,0.198,north,5.5,No
2016/01/11,09:10,0.471,0.273,0.494,0.450,0.422,0.224,0.198,north,4.5,No
2016/01/11,09:20,0.470,0.274,0.494,0.447,0.423,0.224,0.198,north-northeast,5.0,No
2016/01/11,09:30,0.471,0.274,0.495,0.449,0.424,0.223,0.197,north,4.1,No
2016/01/11,09:40,0.471,0.271,0.495,0.448,0.423,0.224,0.199,north,6.8,No
2016/01/11,09:50,0.471,0.272,0.495,0.449,0.422,0.225,0.197,north-northeast,8.2,No
2016/01/11,10:00,0.472,0.272,0.492,0.447,0.423,0.224,0.197,north-northwest,5.8,No
2016/01/11,10:10,0.470,0.272,0.497,0.449,0.423,0.224,0.198,west-northwest,6.7,No
2016/01/11,10:20,0.472,0.272,0.494,0.448,0.421,0.224,0.196,northwest,7.7,No
2016/01/11,10:30,0.470,0.272,0.493,0.449,0.425,0.226,0.197,northwest,9.0,No
2016/01/11,10:40,0.471,0.273,0.496,0.449,0.422,0.224,0.199,northwest,9.3,No
2016/01/11,10:50,0.471,0.272,0.495,0.450,0.422,0.224,0.198,north-northwest,8.9,No
2016/01/11,11:00,0.469,0.274,0.493,0.447,0.423,0.225,0.197,northwest,10.3,No
2016/01/11,11:10,0.470,0.272,0.494,0.451,0.422,0.224,0.197,northwest,7.9,No
2016/01/11,11:20,0.470,0.272,0.496,0.451,0.425,0.224,0.198,northwest,13.1,No
2016/01/11,11:30,0.470,0.273,0.494,0.449,0.424,0.225,0.197,northwest,10.0,No
2016/01/11,11:40,0.473,0.271,0.496,0.451,0.423,0.225,0.198,west-northwest,9.5,No
2016/01/11,11:50,0.471,0.271,0.493,0.448,0.427,0.224,0.197,west-northwest,12.0,No
2016/01/11,12:00,0.471,0.273,0.492,0.449,0.424,0.225,0.198,west-northwest,10.4,No
2016/01/11,12:10,0.472,0.271,0.496,0.450,0.426,0.225,0.197,northwest,11.2,No
2016/01/11,12:20,0.470,0.273,0.494,0.449,0.425,0.224,0.197,northwest,11.7,No
2016/01/11,12:30,0.472,0.273,0.495,0.450,0.424,0.225,0.197,northwest,11.2,No
2016/01/11,12:40,0.471,0.273,0.495,0.448,0.428,0.225,0.199,west,6.8,No
2016/01/11,12:50,0.471,0.274,0.494,0.452,0.422,0.225,0.198,west-northwest,8.2,No
2016/01/11,13:00,0.473,0.272,0.496,0.448,0.424,0.224,0.198,west-northwest,7.1,No
2016/01/11,13:10,0.470,0.273,0.492,0.451,0.426,0.225,0.198,northwest,8.7,No
2016/01/11,13:20,0.472,0.272,0.494,0.451,0.427,0.225,0.198,northwest,7.4,No
2016/01/11,13:30,0.473,0.272,0.494,0.450,0.425,0.225,0.198,northwest,8.5,No
2016/01/11,13:40,0.473,0.272,0.493,0.453,0.426,0.226,0.198,west-northwest,7.8,No
2016/01/11,13:50,0.473,0.274,0.496,0.448,0.425,0.225,0.197,northwest,8.1,No
2016/01/11,14:00,0.473,0.271,0.493,0.451,0.425,0.225,0.197,west-northwest,7.1,No
2016/01/11,14:10,0.472,0.272,0.496,0.450,0.425,0.226,0.198,west-northwest,7.0,No
2016/01/11,14:20,0.473,0.272,0.495,0.450,0.424,0.224,0.197,west-northwest,8.8,No
2016/01/11,14:30,0.475,0.272,0.497,0.452,0.424,0.224,0.199,west-northwest,7.3,No
2016/01/11,14:40,0.474,0.271,0.497,0.450,0.426,0.224,0.197,northwest,9.5,No
2016/01/11,14:50,0.473,0.273,0.497,0.452,0.423,0.223,0.198,northwest,9.2,No
2016/01/11,15:00,0.474,0.271,0.497,0.453,0.424,0.225,0.198,northwest,7.4,No
2016/01/11,15:10,0.473,0.273,0.497,0.451,0.425,0.224,0.200,northwest,8.9,No
2016/01/11,15:20,0.471,0.273,0.497,0.453,0.425,0.226,0.198,northwest,8.1,No
2016/01/11,15:30,0.473,0.274,0.496,0.450,0.424,0.224,0.199,northwest,8.9,No
2016/01/11,15:40,0.474,0.274,0.496,0.451,0.425,0.224,0.199,west-northwest,7.4,No
2016/01/11,15:50,0.473,0.273,0.496,0.451,0.425,0.224,0.200,northwest,5.4,No
2016/01/11,16:00,0.471,0.273,0.496,0.451,0.424,0.225,0.198,northwest,6.5,No
2016/01/11,16:10,0.473,0.272,0.495,0.450,0.424,0.225,0.199,west-northwest,6.8,No
2016/01/11,16:20,0.473,0.273,0.497,0.451,0.425,0.225,0.198,northwest,8.6,No
2016/01/11,16:30,0.471,0.273,0.496,0.452,0.425,0.224,0.199,northwest,6.5,No
2016/01/11,16:40,0.471,0.273,0.495,0.449,0.423,0.224,0.199,northwest,6.3,No
2016/01/11,16:50,0.472,0.274,0.495,0.451,0.425,0.225,0.199,northwest,7.3,No
2016/01/11,17:00,0.473,0.273,0.496,0.451,0.425,0.225,0.199,northwest,7.4,No
2016/01/11,17:10,0.472,0.274,0.497,0.451,0.425,0.225,0.198,north-northwest,6.5,No
2016/01/11,17:20,0.473,0.274,0.496,0.450,0.424,0.225,0.198,north,5.3,No
2016/01/11,17:30,0.471,0.273,0.496,0.449,0.423,0.225,0.198,north-northeast,3.4,No
2016/01/11,17:40,0.470,0.274,0.496,0.451,0.426,0.224,0.198,north-northeast,3.4,No
2016/01/11,17:50,0.471,0.274,0.494,0.451,0.425,0.224,0.199,north-northeast,5.1,No
2016/01/11,18:00,0.471,0.272,0.494,0.450,0.424,0.225,0.199,north-northeast,5.0,No
2016/01/11,18:10,0.474,0.273,0.496,0.452,0.424,0.224,0.198,north,5.2,No
2016/01/11,18:20,0.472,0.273,0.496,0.452,0.426,0.225,0.198,north,4.8,No
2016/01/11,18:30,0.472,0.272,0.495,0.450,0.425,0.224,0.198,north,5.1,No
2016/01/11,18:40,0.474,0.273,0.495,0.450,0.423,0.225,0.198,north,5.0,No
2016/01/11,18:50,0.473,0.273,0.497,0.450,0.423,0.225,0.198,north,5.9,No
2016/01/11,19:00,0.471,0.274,0.496,0.452,0.425,0.225,0.199,north,6.3,No
2016/01/11,19:10,0.473,0.272,0.494,0.449,0.424,0.225,0.197,north,6.3,No
2016/01/11,19:20,0.472,0.274,0.495,0.450,0.425,0.224,0.199,north,6.2,No
2016/01/11,19:30,0.474,0.273,0.497,0.452,0.422,0.225,0.199,north,8.1,No
2016/01/11,19:40,0.472,0.273,0.496,0.451,0.423,0.224,0.198,north-northwest,7.7,No
2016/01/11,19:50,0.472,0.273,0.495,0.449,0.425,0.225,0.199,north-northwest,7.5,No
2016/01/11,20:00,0.472,0.275,0.497,0.450,0.424,0.225,0.199,north-northwest,5.3,No
2016/01/11,20:10,0.473,0.274,0.498,0.451,0.424,0.226,0.199,north-northwest,4.4,No
2016/01/11,20:20,0.473,0.274,0.495,0.450,0.424,0.225,0.198,north,3.9,No
2016/01/11,20:30,0.473,0.274,0.496,0.449,0.425,0.225,0.199,north,3.7,No
2016/01/11,20:40,0.473,0.273,0.496,0.451,0.425,0.225,0.199,north,4.8,No
2016/01/11,20:50,0.472,0.274,0.497,0.451,0.423,0.223,0.199,north,5.0,No
2016/01/11,21:00,0.472,0.274,0.496,0.450,0.424,0.225,0.200,north,5.6,No
2016/01/11,21:10,0.472,0.273,0.496,0.450,0.426,0.224,0.198,north,5.0,No
2016/01/11,21:20,0.474,0.274,0.497,0.453,0.423,0.225,0.199,north,6.2,No
2016/01/11,21:30,0.473,0.273,0.496,0.450,0.423,0.226,0.199,north,6.5,No
2016/01/11,21:40,0.471,0.274,0.496,0.450,0.424,0.225,0.199,north,7.0,No
2016/01/11,21:50,0.472,0.274,0.496,0.449,0.423,0.225,0.199,north,6.1,No
2016/01/11,22:00,0.473,0.274,0.498,0.453,0.425,0.226,0.199,north,7.0,No
2016/01/11,22:10,0.472,0.273,0.496,0.452,0.424,0.225,0.198,north,6.3,No
2016/01/11,22:20,0.472,0.274,0.495,0.450,0.425,0.226,0.198,north,6.2,No
2016/01/11,22:30,0.472,0.274,0.496,0.449,0.425,0.226,0.199,north,6.8,No
2016/01/11,22:40,0.471,0.273,0.497,0.452,0.424,0.226,0.199,north,7.1,No
2016/01/11,22:50,0.473,0.274,0.497,0.452,0.424,0.225,0.200,north,7.6,No
2016/01/11,23:00,0.471,0.273,0.495,0.452,0.426,0.226,0.200,north,7.3,No
2016/01/11,23:10,0.472,0.273,0.497,0.451,0.424,0.226,0.199,north,5.6,No
2016/01/11,23:20,0.472,0.272,0.499,0.451,0.424,0.226,0.199,north-northwest,4.8,No
2016/01/11,23:30,0.471,0.274,0.498,0.451,0.425,0.225,0.199,north,4.5,No
2016/01/11,23:40,0.472,0.274,0.495,0.452,0.424,0.225,0.199,north,4.9,No
2016/01/11,23:50,0.473,0.274,0.496,0.450,0.425,0.226,0.200,north-northwest,6.7,No
